CAPE
3 3 1 1 0 0 0 0 0 0 1 0 0 0 1 0 0 0 0 0 0 0 0 0 0 0 0 0 0 0 0 0 0 0 0 0 0 0 0 0 0 0 0 0 352
4 3 4 3 3 3 2 1 1 0 0 0 0 0 1 0 0 0 0 0 0 0 0 0 0 0 0 0 0 0 0 0 0 0 0 0 0 0 0 0 0 0 0 0 0
4 3 2 2 2 3 2 2 2 4 2 1 0 0 0 0 0 0 0 0 0 0 0 0 0 0 0 0 0 0 0 0 0 0 0 0 0 0 0 0 0 0 0 0 82
2 2 1 1 1 1 1 2 4 7 8 8 4 8 4 0 0 0 0 0 0 0 0 0 0 0 0 0 0 0 0 0 0 0 0 0 0 0 0 0 0 0 0 22 463
1 0 0 0 0 0 0 0 0 1 5 8 5 10 5 0 0 0 0 0 0 0 0 0 0 0 0 0 0 0 0 0 0 0 0 0 0 0 0 0 0 0 0 0 0
0 1 0 0 0 0 0 0 0 0 2 6 2 8 1 0 0 0 0 0 0 0 0 0 0 0 0 0 0 0 0 0 0 0 0 0 0 0 0 0 0 0 0 0 0
0 0 0 0 0 0 0 0 0 1 3 6 7 9 0 0 0 0 0 0 0 0 0 0 0 0 0 0 0 0 0 0 0 0 0 0 0 0 0 0 0 0 0 0 0
2 0 0 1 2 1 0 0 0 0 2 3 8 6 0 0 0 0 0 0 0 0 0 0 0 0 0 0 0 0 0 0 0 0 0 0 0 0 0 0 0 0 0 0 0
2 0 1 3 0 1 2 0 0 0 0 2 9 1 0 0 0 0 0 0 0 0 0 0 0 0 0 0 0 0 0 0 0 0 0 0 0 0 0 0 0 0 0 0 0
1 0 0 0 1 0 0 0 0 0 0 4 6 1 0 0 0 0 0 0 0 0 0 0 0 0 0 0 0 0 0 0 0 0 0 0 0 0 0 0 0 0 0 0 0
1 1 1 0 1 0 0 0 0 0 7 0 0 0 0 0 0 0 0 1 0 0 0 0 0 0 0 0 0 0 0 0 0 0 0 0 0 0 0 0 0 0 0 0 0
0 1 2 0 0 0 0 1 0 2 0 0 0 0 0 0 0 0 0 8 33 6 5 0 4 0 0 0 0 0 0 0 0 0 0 0 0 0 0 0 0 0 0 0 0
0 0 2 0 0 0 0 1 13 18 4 0 0 0 0 1 0 0 0 0 7 14 26 22 0 0 0 0 0 0 0 0 0 0 0 0 0 0 0 0 0 0 0 0 0
0 0 0 0 0 0 6 9 9 11 1 0 7 5 9 62 8 17 51 0 1 36 60 49 4 0 10 0 0 0 0 0 0 0 0 0 0 0 0 0 0 0 0 0 0
0 0 0 0 0 17 0 3 13 17 3 2 16 23 3 8 44 39 39 55 10 4 15 0 22 32 40 7 0 0 0 0 0 0 0 0 0 0 0 0 0 0 0 0 0
0 0 0 0 0 0 5 7 18 0 6 25 1 0 0 11 7 33 17 84 161 36 17 7 24 27 17 19 15 37 5 9 12 5 21 0 0 0 0 0 0 0 0 0 0
0 0 0 0 0 0 10 4 7 6 3 0 0 0 2 0 52 2 115 36 94 11 0 9 16 6 59 43 1 44 63 27 14 23 23 0 0 0 0 0 0 0 0 0 0
0 0 1 0 0 0 5 2 2 0 0 0 0 0 0 4 0 13 86 99 92 50 29 39 41 3 82 58 30 47 26 15 32 19 12 0 0 0 0 0 0 0 0 0 0
0 0 0 0 0 4 21 1 10 8 2 3 0 0 1 9 3 26 40 111 40 36 85 68 46 91 65 11 47 2 57 30 57 44 45 0 0 0 0 0 0 0 0 0 0
0 0 0 0 0 6 1 0 5 0 3 2 1 5 4 11 4 13 86 5 96 51 28 112 18 55 81 10 5 4 56 36 24 35 23 6 0 0 0 0 0 0 0 0 0
0 0 0 0 0 0 1 1 0 2 3 0 6 3 0 14 9 16 19 57 25 32 14 20 2 1 11 11 22 61 36 74 6 8 48 4 9 0 0 0 0 0 61 391 540
0 0 0 0 0 0 0 0 0 0 4 4 3 11 1 20 15 15 12 30 15 3 1 10 0 18 2 19 92 144 22 98 12 35 23 0 22 0 5 0 0 664 357 193 114
0 0 0 0 0 0 0 0 1 2 0 1 1 0 4 14 3 9 5 9 17 4 9 2 12 1 19 14 0 0 44 101 39 79 2 0 10 142 10 18 489 130 21 34 42
0 0 0 0 0 0 0 0 1 5 0 1 0 1 8 15 9 7 1 9 5 0 4 11 21 8 4 2 0 0 0 8 145 45 0 0 59 230 553 466 51 2 11 36 89
0 0 2 0 0 1 1 0 1 2 2 1 1 0 6 0 4 0 0 0 0 0 31 1 4 21 8 21 24 3 0 0 85 39 18 147 127 177 717 148 12 9 30 119 169
15 16 2 1 0 0 0 1 0 0 4 2 4 3 3 1 2 1 3 1 1 0 14 7 1 5 0 11 2 0 0 0 43 19 5 0 102 179 355 120 78 59 50 5 0
4 1 2 0 0 0 0 0 1 1 0 0 0 0 1 6 5 5 5 3 1 1 2 1 3 1 0 7 2 0 0 0 10 41 100 0 0 298 234 190 169 63 2 0 0
CIN
-0 -0 -0 -0 -0 -0 -0 -0 -0 -0 -0 -0 -0 -0 -0 -0 -0 -0 -0 -0 -0 -0 -0 -0 -0 -0 -0 -0 -0 -0 -0 -0 -0 -0 -0 -0 -0 -0 -0 -0 -0 -0 -0 -0 -30
-0 -0 -0 -0 -0 -0 -0 -0 -0 -0 -0 -0 -0 -0 -0 -0 -0 -0 -0 -0 -0 -0 -0 -0 -0 -0 -0 -0 -0 -0 -0 -0 -0 -0 -0 -0 -0 -0 -0 -0 -0 -0 -0 -0 -0
-0 -0 -0 -0 -0 -0 -0 -0 -0 -0 -0 -0 -0 -0 -0 -0 -0 -0 -0 -0 -0 -0 -0 -0 -0 -0 -0 -0 -0 -0 -0 -0 -0 -0 -0 -0 -0 -0 -0 -0 -0 -0 -0 -0 -54
-0 -0 -0 -0 -0 -0 -0 -0 -0 -0 -0 -0 -0 -1 -1 -0 -0 -0 -0 -0 -0 -0 -0 -0 -0 -0 -0 -0 -0 -0 -0 -0 -0 -0 -0 -0 -0 -0 -0 -0 -0 -0 -0 -18 -26
-0 -0 -0 -0 -0 -0 -0 -0 -0 -0 -0 -0 -0 -0 -1 -0 -0 -0 -0 -0 -0 -0 -0 -0 -0 -0 -0 -0 -0 -0 -0 -0 -0 -0 -0 -0 -0 -0 -0 -0 -0 -0 -0 -0 -0
-0 -0 -0 -0 -0 -0 -0 -0 -0 -0 -0 -0 -1 -0 -0 -0 -0 -0 -0 -0 -0 -0 -0 -0 -0 -0 -0 -0 -0 -0 -0 -0 -0 -0 -0 -0 -0 -0 -0 -0 -0 -0 -0 -0 -0
-0 -0 -0 -0 -0 -0 -0 -0 -0 -0 -0 -0 -0 -0 -0 -0 -0 -0 -0 -0 -0 -0 -0 -0 -0 -0 -0 -0 -0 -0 -0 -0 -0 -0 -0 -0 -0 -0 -0 -0 -0 -0 -0 -0 -0
-0 -0 -0 -0 -0 -0 -0 -0 -0 -0 -0 -0 -0 -0 -0 -0 -0 -0 -0 -0 -0 -0 -0 -0 -0 -0 -0 -0 -0 -0 -0 -0 -0 -0 -0 -0 -0 -0 -0 -0 -0 -0 -0 -0 -0
-0 -0 -0 -0 -0 -0 -0 -0 -0 -0 -0 -1 -0 -0 -0 -0 -0 -0 -0 -0 -0 -0 -0 -0 -0 -0 -0 -0 -0 -0 -0 -0 -0 -0 -0 -0 -0 -0 -0 -0 -0 -0 -0 -0 -0
-0 -0 -0 -0 -0 -0 -0 -0 -0 -0 -0 -2 -3 -0 -0 -0 -0 -0 -0 -0 -0 -0 -0 -0 -0 -0 -0 -0 -0 -0 -0 -0 -0 -0 -0 -0 -0 -0 -0 -0 -0 -0 -0 -0 -0
-0 -0 -0 -0 -0 -0 -0 -0 -0 -0 -1 -0 -0 -0 -0 -0 -0 -0 -0 -0 -0 -0 -0 -0 -0 -0 -0 -0 -0 -0 -0 -0 -0 -0 -0 -0 -0 -0 -0 -0 -0 -0 -0 -0 -0
-0 -0 -0 -0 -0 -0 -0 -0 -0 -0 -0 -0 -0 -0 -0 -0 -0 -0 -0 -1 -2 -4 -4 -0 -1 -0 -0 -0 -0 -0 -0 -0 -0 -0 -0 -0 -0 -0 -0 -0 -0 -0 -0 -0 -0
-0 -0 -0 -0 -0 -0 -0 -2 -1 -2 -0 -0 -0 -0 -0 -16 -0 -0 -0 -0 -3 -6 -7 -11 -0 -0 -0 -0 -0 -0 -0 -0 -0 -0 -0 -0 -0 -0 -0 -0 -0 -0 -0 -0 -0
-0 -0 -0 -0 -0 -0 -4 -2 -2 -2 -0 -0 -6 -8 -37 -5 -2 -10 -5 -0 -1 -5 -6 -9 -21 -0 -8 -0 -0 -0 -0 -0 -0 -0 -0 -0 -0 -0 -0 -0 -0 -0 -0 -0 -0
-0 -0 -0 -0 -0 -2 -0 -4 -1 -2 -14 -12 -18 -30 -26 -23 -5 -7 -15 -9 -10 -7 -6 -0 -5 -5 -5 -10 -0 -0 -0 -0 -0 -0 -0 -0 -0 -0 -0 -0 -0 -0 -0 -0 -0
-0 -0 -0 -0 -0 -0 -2 -2 -1 -0 -5 -3 -12 -0 -0 -4 -5 -4 -18 -9 -2 -23 -5 -7 -10 -14 -11 -12 -29 -8 -6 -6 -4 -8 -1 -0 -0 -0 -0 -0 -0 -0 -0 -0 -0
-0 -0 -0 -0 -0 -0 -2 -1 -1 -3 -2 -0 -0 -0 -1 -4 -16 -43 -14 -69 -15 -7 -0 -9 -5 -13 -26 -7 -12 -7 -9 -8 -20 -6 -12 -0 -0 -0 -0 -0 -0 -0 -0 -0 -0
-0 -0 -6 -0 -0 -0 -5 -5 -2 -0 -0 -0 -0 -0 -0 -1 -6 -47 -8 -2 -4 -5 -6 -3 -6 -82 -6 -6 -7 -7 -20 -3 -2 -3 -8 -0 -0 -0 -0 -0 -0 -0 -0 -0 -0
-0 -0 -0 -0 -0 -6 -5 -3 -1 -1 -1 -0 -0 -0 -0 -2 -3 -10 -3 -0 -64 -58 -1 -3 -5 -7 -6 -28 -10 -19 -3 -18 -31 -9 -6 -0 -0 -0 -0 -0 -0 -0 -0 -0 -0
-0 -0 -0 -0 -0 -8 -1 -0 -1 -0 -1 -1 -0 -0 -0 -0 -1 -2 -1 -2 -0 -4 -5 -1 -17 -5 -9 -10 -12 -2 -20 -5 -17 -14 -38 -9 -1 -0 -0 -0 -0 -0 -0 -0 -0
-0 -0 -0 -0 -0 -0 -1 -0 -1 -2 -2 -0 -0 -1 -0 -0 -1 -3 -26 -8 -3 -2 -4 -1 -0 -39 -2 -12 -12 -3 -6 -17 -12 -76 -8 -12 -7 -0 -3 -0 -0 -0 -51 -92 -98
-0 -0 -0 -0 -0 -0 -0 -0 -0 -0 -2 -2 -3 -1 -0 -0 -0 -1 -3 -6 -4 -3 -2 -1 -0 -0 -2 -0 -8 -4 -74 -8 -42 -19 -68 -0 -29 -0 -8 -0 -0 -29 -152 -278 -251
-0 -0 -0 -0 -0 -0 -0 -0 -2 -3 -0 -3 -1 -0 -3 -0 -4 -1 -2 -4 -1 -2 -2 -0 -0 -0 -6 -0 -0 -0 -1 -13 -33 -21 -124 -8 -36 -10 -29 -4 -44 -206 -374 -325 -257
-0 -0 -0 -0 -0 -0 -0 -1 -3 -3 -0 -0 -1 -3 -1 -0 -2 -1 -2 -2 -2 -1 -1 -2 -0 -0 -0 -1 -0 -0 -0 -8 -5 -12 -1 -0 -60 -25 -30 -60 -206 -0 -289 -235 -124
-0 -0 -0 -0 -0 -1 -4 -4 -2 -0 -1 -1 -2 -3 -1 -0 -0 -2 -2 -0 -0 -0 -0 -0 -0 -1 -1 -2 -8 -1 -0 -0 -4 -40 -97 -8 -34 -1 -48 -114 -115 -82 -154 -68 -33
-0 -0 -1 -0 -1 -1 -0 -4 -0 -0 -1 -1 -0 -0 -0 -0 -0 -0 -0 -0 -0 -0 -1 -0 -0 -0 -0 -1 -8 -0 -0 -1 -5 -14 -195 -0 -33 -1 -52 -156 -100 -58 -69 -0 -0
-5 -0 -0 -0 -0 -0 -0 -0 -2 -2 -0 -0 -0 -0 -0 -0 -0 -0 -0 -0 -0 -0 -0 -0 -0 -0 -0 -1 -0 -0 -0 -0 -2 -2 -7 -9 -0 -45 -65 -104 -43 -70 -0 -0 -0
Wind_Speed
32 32 31 31 32 33 34 34 34 34 35 35 35 36 37 39 42 42 45 26 22 16 20 21 17 15 19 26 23 22 37 41 35 35 35 31 30 25 30 31 27 20 25 13 11
34 34 34 34 34 35 36 36 37 37 37 37 37 38 38 40 43 48 41 28 18 20 17 23 22 20 22 24 24 25 32 33 36 37 40 33 28 31 26 27 27 25 23 23 16
36 36 37 37 37 38 38 39 39 39 39 39 39 39 38 39 42 27 23 19 8 11 16 18 25 22 27 26 25 27 35 36 39 41 39 36 30 25 27 31 26 24 22 20 20
39 39 40 41 41 42 42 42 41 41 41 41 40 38 37 35 33 22 19 17 13 12 15 22 24 29 30 31 28 36 38 41 47 41 33 39 35 35 28 29 23 20 19 16 17
41 42 43 44 44 45 45 46 46 44 42 41 38 35 34 35 35 25 22 18 16 15 18 21 25 27 33 33 33 37 40 40 39 41 44 33 37 38 36 25 29 20 13 17 18
43 44 45 46 47 47 48 48 46 46 43 39 35 31 32 45 30 28 19 26 27 23 25 23 26 27 35 38 36 38 41 44 44 42 38 42 38 35 34 30 26 27 19 17 19
45 46 47 47 49 50 51 51 47 44 44 41 35 29 33 33 24 26 24 26 25 26 29 30 31 33 33 38 38 45 49 44 44 41 39 36 48 38 34 27 30 25 26 23 19
46 47 49 49 49 49 51 49 48 45 41 36 28 23 39 34 32 32 31 34 30 27 33 34 33 40 40 36 41 39 45 52 46 36 39 32 61 37 34 31 28 28 28 24 21
48 49 50 50 50 51 51 50 44 38 34 26 25 25 42 22 26 30 32 36 34 33 36 35 37 40 40 44 47 48 48 47 49 38 35 36 59 42 30 27 32 26 29 26 21
49 49 51 52 52 52 52 49 37 31 26 22 28 33 33 32 31 28 27 28 32 30 32 34 34 41 41 40 52 46 45 49 50 41 38 43 54 41 26 30 28 27 27 25 23
50 50 52 53 54 51 47 46 45 36 28 42 51 56 57 55 50 51 37 33 33 38 44 37 42 50 46 45 46 49 48 51 47 45 40 45 50 42 39 31 29 28 27 26 24
51 52 54 54 51 42 37 42 42 38 57 46 51 49 47 42 47 43 31 34 36 46 40 43 54 52 47 48 52 56 52 52 41 38 42 43 48 47 37 36 31 29 27 25 23
53 54 56 54 44 38 39 40 41 40 46 48 32 28 25 25 29 29 24 32 39 43 46 49 51 46 52 53 54 56 57 55 49 34 41 39 48 45 46 38 32 31 27 26 24
54 55 54 51 35 40 40 41 37 31 36 25 20 20 20 21 19 19 14 16 28 40 42 43 44 52 50 56 53 59 52 55 54 49 44 41 51 46 44 43 39 32 28 25 23
52 53 48 42 36 39 41 34 30 21 23 25 25 21 19 15 32 20 3 8 18 21 33 41 40 44 52 53 47 56 48 51 53 55 48 42 49 47 38 43 41 36 30 25 24
53 48 42 37 35 38 33 22 19 20 23 28 20 22 15 14 15 15 13 18 21 22 23 30 32 32 37 39 47 41 50 52 49 52 58 49 46 52 47 41 40 36 34 28 25
50 39 34 30 40 33 27 20 19 29 22 19 19 16 15 12 11 9 13 14 31 26 20 12 20 37 26 36 39 36 46 52 53 60 58 48 46 44 36 38 38 36 34 32 27
44 31 29 34 31 27 21 25 24 28 18 20 15 12 9 24 7 10 11 11 19 33 34 27 25 7 9 24 31 39 44 52 56 55 58 51 57 48 39 34 31 34 32 28 27
38 29 33 34 29 17 27 32 27 13 15 12 11 13 15 17 9 4 8 18 12 17 25 20 20 6 6 7 19 31 47 37 45 43 47 57 52 54 38 27 25 29 27 28 26
34 27 37 29 18 22 30 26 4 13 15 14 7 11 18 22 19 17 16 22 22 25 26 26 26 25 25 8 22 26 23 41 42 40 50 53 53 55 43 34 30 28 24 25 23
27 29 31 23 10 24 29 19 9 16 12 13 10 7 10 19 20 21 15 23 23 25 26 24 24 23 17 3 22 23 39 37 47 31 26 46 46 39 38 36 30 26 21 20 19
29 30 24 16 27 20 18 8 3 18 13 13 5 14 8 23 18 22 25 26 30 27 26 20 23 22 15 18 18 40 48 54 33 46 36 32 31 36 25 28 29 20 19 16 17
31 24 21 16 28 23 12 7 8 18 32 20 15 13 15 22 34 34 25 30 30 26 23 23 21 18 15 14 18 34 44 44 53 42 44 29 23 22 23 27 23 22 20 18 16
29 28 24 18 25 21 12 11 10 18 16 21 12 10 8 29 28 34 34 26 29 29 29 25 26 25 19 18 10 25 42 44 46 50 50 45 24 31 21 22 23 21 20 18 18
30 26 24 24 22 13 15 10 15 18 21 20 12 11 18 13 29 16 27 32 30 26 20 21 24 22 21 21 20 23 39 43 45 51 40 27 24 42 19 21 22 23 22 21 19
29 27 22 19 13 9 15 16 19 17 17 14 8 16 16 20 18 23 22 22 22 22 21 20 21 21 20 20 22 22 31 44 45 48 42 32 30 21 13 18 23 26 24 22 19
23 19 22 22 18 14 19 14 15 18 18 14 15 20 14 15 15 23 23 23 25 26 22 21 19 18 17 21 21 26 44 48 42 44 35 32 29 14 15 21 25 24 22 20 18
Wind_Direction
338 334 326 320 319 321 321 318 316 316 314 312 310 308 306 303 295 286 272 293 297 280 293 293 290 274 268 269 266 271 266 265 267 269 273 274 273 274 270 272 266 270 261 296 288
341 336 330 325 321 319 316 312 312 315 315 313 311 310 309 308 300 281 288 294 284 285 272 278 277 274 264 267 260 256 264 265 268 268 264 270 272 271 268 269 267 265 266 268 281
342 340 333 328 325 323 318 314 313 312 311 310 309 311 311 310 303 309 323 317 292 285 270 273 275 270 267 266 256 256 260 270 266 265 266 267 269 270 271 266 266 265 266 267 270
345 339 334 330 326 324 322 319 320 317 313 310 308 308 309 308 302 318 330 328 311 291 277 274 270 266 266 263 262 261 266 267 263 268 269 265 268 266 268 268 278 272 264 280 266
343 342 336 330 327 324 320 316 316 318 316 315 315 316 314 302 294 293 304 309 305 290 274 268 268 263 262 267 265 262 265 268 271 268 264 270 265 266 265 264 267 277 270 272 279
341 337 332 331 327 324 322 322 320 317 317 317 317 318 309 298 310 307 283 290 286 280 276 270 276 268 272 265 265 267 268 267 265 268 266 264 267 265 263 265 262 263 263 267 274
335 333 333 335 330 326 323 320 322 320 316 314 312 308 301 295 314 311 300 290 286 275 273 271 271 273 269 271 268 269 267 266 264 262 264 268 262 258 263 263 259 261 259 263 266
345 342 338 336 333 331 326 325 323 320 318 317 314 306 298 303 299 292 288 287 289 284 276 274 272 268 266 273 268 271 265 262 260 263 261 258 251 264 259 257 257 258 258 257 257
346 343 341 339 336 333 329 325 323 322 322 320 316 307 305 324 305 295 287 285 285 274 274 274 269 266 264 261 264 260 262 260 264 258 259 250 254 262 264 250 253 253 255 253 248
348 347 343 339 337 334 329 326 323 325 326 325 316 307 301 304 313 301 300 289 281 281 269 264 266 260 256 251 252 254 257 262 263 258 254 254 256 259 261 256 252 251 250 246 241
349 347 344 340 336 335 336 335 333 322 316 309 302 297 294 294 293 287 290 286 279 273 263 258 257 252 248 244 252 261 261 262 262 262 254 253 255 256 257 255 254 253 246 241 234
351 348 344 341 339 341 341 338 335 324 312 310 301 297 293 296 292 284 288 272 271 268 266 258 253 256 260 257 255 256 257 258 263 261 255 253 254 255 252 251 254 251 247 238 235
352 349 345 342 343 344 342 341 337 332 319 318 318 324 328 317 301 298 283 269 267 267 264 258 259 261 258 256 255 253 252 252 256 265 256 252 254 252 251 250 251 252 246 240 229
352 350 347 347 350 348 346 343 344 345 330 346 352 349 346 344 325 330 316 290 275 270 268 265 262 263 258 255 254 252 250 249 251 252 252 246 253 251 248 246 245 247 240 237 229
354 353 353 355 354 352 348 351 1 12 352 5 3 330 271 357 292 326 9 339 294 297 270 267 263 258 257 257 252 253 250 249 248 249 252 247 247 250 242 243 241 239 233 231 231
355 356 360 6 2 358 359 8 33 26 8 358 288 290 270 264 251 237 200 194 231 287 288 277 275 275 264 258 256 255 248 249 248 246 245 242 244 247 246 239 239 235 233 230 233
357 2 5 7 3 7 18 35 38 22 317 298 298 296 278 276 255 212 215 197 207 267 287 297 246 266 270 260 255 246 241 240 242 238 240 236 242 242 242 240 239 235 231 233 232
2 6 14 14 16 24 36 39 44 0 312 299 291 296 319 329 254 256 194 177 188 232 255 288 288 229 225 257 250 239 239 235 235 237 235 237 235 240 242 266 234 236 232 226 225
7 20 21 21 30 56 36 46 47 309 301 296 297 304 313 318 286 257 241 1 313 330 274 260 307 318 195 261 232 244 237 238 248 247 239 236 241 240 241 250 233 230 218 221 218
15 19 22 30 51 47 45 52 61 312 307 299 284 296 307 314 307 301 288 325 323 308 304 279 268 238 234 173 191 217 209 232 237 242 241 235 230 234 231 226 230 236 213 214 208
24 26 32 38 85 56 47 61 287 296 299 288 275 256 271 298 298 295 274 314 314 301 293 270 232 224 200 237 196 187 211 233 232 241 250 234 229 227 221 224 224 226 198 205 212
23 28 39 47 48 61 58 55 57 300 296 277 42 261 250 288 278 284 285 294 300 286 284 287 255 223 204 313 282 192 206 213 229 229 242 252 231 221 220 211 215 201 207 210 212
20 27 49 57 39 42 48 49 288 305 317 16 12 13 276 291 318 311 265 278 297 285 275 267 244 254 105 6 252 207 205 211 213 228 235 238 241 225 194 201 199 208 208 202 193
21 25 32 43 34 33 23 32 6 21 13 13 324 329 308 282 277 281 273 288 286 272 266 259 237 228 237 264 312 244 208 190 195 216 202 220 239 230 173 186 195 197 193 182 174
24 24 28 18 20 21 14 -0 2 2 14 357 0 356 289 301 284 257 269 274 275 261 262 250 240 247 250 253 271 263 204 181 191 207 217 217 217 206 172 180 191 188 179 169 165
19 19 18 6 14 4 14 17 8 355 333 311 333 315 297 278 263 265 258 252 248 247 240 247 230 256 238 225 232 221 217 186 193 201 217 218 225 216 166 173 174 175 168 162 155
19 22 19 12 16 12 17 324 326 339 15 341 313 302 296 277 263 261 250 236 219 240 250 244 233 245 215 251 221 199 187 190 189 212 220 225 229 169 158 169 171 167 164 154 147